DELTA 1 DEB, 10659

Orbit data source: Space-Track

DELTA 1 DEB, 10659 is space debris in SSO originally from a launch on Thu, 29 Jul 1976 UTC launched from the Air Force Western Test Range (AFWTR). Debris objects in space refer to the collection of defunct objects orbiting the Earth. Examples of debris include non-operational satellites, rocket bodies, and fragments generated from explosions, collisions, or faulty payload assembly.

Loading next visibility...
Identifier
10659, 1976-077V
Orbit
SSO
Country
Flag of USUS
Related business
Manufacturer
Unknown
Mission
Spacecraft
Bus & Motor
Unknown
Mass
Unknown
Launch date (UTC)
1976-07-29 (49 years ago)
Launch vehicle
Unknown
Launch site
Air Force Western Test Range (AFWTR)
Object type
Payload
Rocket body
Debris
Shape & HBR
Unknown shape, 0.3 m
Radar Cross Section
Small (<0.1 m²)

Expand to show TLE details & history
Last TLE update: 16 hours ago

TLE from 16 hours ago
0 DELTA 1 DEB
1 10659U 76077V   25292.33639446  .00000003  00000-0  46765-3 0  9990
2 10659 102.1705 237.2090 0174063 139.3416  13.3409 12.09364666173510
Epoch: 2025-10-19T08:04Z
TLE epoch observation values (Epoch: 2025-10-19T08:04:24.481Z)
Latitude
26.23187°
Longitude
-85.87714°
Altitude
1,506.36 km
Speed
7.174 km/s
True Right ascension
04h 13m 07s
True Declination
26° 06' 31"
Sunlit
Object was in full shadow at epoch
Visualization orbit readout
Latitude
Unknown
Longitude
Unknown
Altitude
Unknown
Speed
Unknown
Apparent Right ascension
Unknown
Apparent Declination
Unknown
Sunlit
N/A
Visualization observer readout
Local Sidereal Time
18:34:03
Azimuth
Unknown
Elevation
Unknown
Doppler factor
Unknown
Orbital elements
Apogee altitude
1,776.338 km
Perigee altitude
1,497.316 km
Semi-major axis
8,014.964 km
Eccentricity
0.01741
Inclination
102.1705°
RAAN
237.209°
Arg. of periapsis
139.3416°
True anomaly
13.81109°
Mean anomaly
13.3409°
Eccentric anomaly
13.57499°
Mean motion
3.02476 °/min
Orbital period
119.02 mins
BSTAR
0.00046765
Loading maneuver chart data...
Computing Atmospheric mass density...
Loading historical data...
Loading historical data...
Loading historical data...
Loading historical data...
Loading historical data...
Loading historical data...
Loading historical data...

Documentation

Showing up to 5 results
|